KQ4Q-4 Weather Reports


time (UTC)temp
C
wind
direction
speed
KPH
gust
KPH
rain 1hr
cm
rain 24hr
cm
rain mn
cm
humidity
%
barometer
mb
20260508141106 11 338 0.0 3.2 0.00 0.00 0.00 56 1017.7
20260508140607 11 29 3.2 4.8 0.00 0.00 0.00 56 1017.7
20260508140107 10 352 1.6 3.2 0.00 0.00 0.00 59 1017.7
20260508135607 10 43 3.2 4.8 0.00 0.00 0.00 64 1017.7
20260508135107 10 168 4.8 6.4 0.00 0.00 0.00 63 1017.7
20260508134607 10 185 3.2 4.8 0.00 0.00 0.00 66 1017.6
20260508134106 9 191 1.6 3.2 0.00 0.00 0.00 69 1017.6
20260508133607 9 205 1.6 3.2 0.00 0.00 0.00 69 1017.6
20260508133107 8 306 0.0 1.6 0.00 0.00 0.00 76 1017.6
20260508132607 8 333 0.0 1.6 0.00 0.00 0.00 77 1017.5
20260508132107 7 282 0.0 1.6 0.00 0.00 0.00 82 1017.5
20260508131606 7 355 1.6 3.2 0.00 0.00 0.00 91 1017.5
20260508131107 6 338 0.0 1.6 0.00 0.00 0.00 98 1017.5
20260508130607 6 162 0.0 3.2 0.00 0.00 0.00 98 1017.6
20260508130110 5 155 0.0 0.0 0.00 0.00 0.00 100 1017.5
20260508125607 5 6 0.0 1.6 0.00 0.00 0.00 100 1017.5
20260508125107 5 5 1.6 3.2 0.00 0.00 0.00 100 1017.5
20260508124607 5 5 1.6 3.2 0.00 0.00 0.00 100 1017.5
20260508124108 4 16 0.0 1.6 0.00 0.00 0.00 100 1017.5
20260508123607 3 1 0.0 0.0 0.00 0.00 0.00 100 1017.5
20260508123108 3 17 1.6 1.6 0.00 0.00 0.00 99 1017.5
20260508122607 2 348 1.6 1.6 0.00 0.00 0.00 99 1017.5
20260508122106 2 349 0.0 1.6 0.00 0.00 0.00 99 1017.5
20260508121606 2 318 0.0 1.6 0.00 0.00 0.00 99 1017.5
20260508121106 1 53 1.6 3.2 0.00 0.00 0.00 99 1017.5
20260508120117 1 10 1.6 1.6 0.00 0.00 0.00 99 1017.4
20260508115607 0 0 0.0 0.0 0.00 0.00 0.00 99 1017.4
20260508115106 0 6 0.0 1.6 0.00 0.00 0.00 99 1017.4
20260508114607 0 327 0.0 0.0 0.00 0.00 0.00 99 1017.4
20260508114106 0 6 0.0 0.0 0.00 0.00 0.00 99 1017.3
20260508113607 0 340 1.6 1.6 0.00 0.00 0.00 99 1017.3
20260508113106 0 42 0.0 0.0 0.00 0.00 0.00 99 1017.3
20260508112606 0 46 0.0 0.0 0.00 0.00 0.00 99 1017.2
20260508112107 0 0 0.0 0.0 0.00 0.00 0.00 99 1017.2
20260508111606 0 0 0.0 0.0 0.00 0.00 0.00 99 1017.1
20260508111108 0 4 0.0 0.0 0.00 0.00 0.00 99 1017.0
20260508110606 0 327 0.0 1.6 0.00 0.00 0.00 99 1017.0
20260508110106 0 54 0.0 0.0 0.00 0.00 0.00 99 1017.0
20260508105606 0 97 0.0 1.6 0.00 0.00 0.00 99 1016.9
20260508105107 0 102 1.6 1.6 0.00 0.00 0.00 99 1016.9
20260508104607 0 119 0.0 1.6 0.00 0.00 0.00 99 1016.9
20260508104107 0 0 0.0 0.0 0.00 0.00 0.00 99 1016.9
20260508103606 0 70 0.0 0.0 0.00 0.00 0.00 99 1016.8
20260508103106 0 89 1.6 1.6 0.00 0.00 0.00 99 1016.8
20260508102607 0 97 1.6 3.2 0.00 0.00 0.00 99 1016.6
20260508102107 0 95 0.0 1.6 0.00 0.00 0.00 99 1016.8
20260508101609 0 120 0.0 0.0 0.00 0.00 0.00 99 1016.6
20260508101106 0 24 0.0 0.0 0.00 0.00 0.00 99 1016.6
20260508100606 0 0 0.0 0.0 0.00 0.00 0.00 99 1016.6
20260508100107 0 328 0.0 0.0 0.00 0.00 0.00 100 1016.5
20260508095606 0 0 0.0 0.0 0.00 0.00 0.00 100 1016.5
20260508095107 0 0 0.0 0.0 0.00 0.00 0.00 100 1016.4
20260508094607 0 224 0.0 0.0 0.00 0.00 0.00 100 1016.4
20260508094106 0 0 0.0 0.0 0.00 0.00 0.00 100 1016.4
20260508093606 0 0 0.0 0.0 0.00 0.00 0.00 99 1016.4
20260508093107 0 0 0.0 0.0 0.00 0.00 0.00 99 1016.3
20260508092606 0 0 0.0 0.0 0.00 0.00 0.00 99 1016.4
20260508092107 0 0 0.0 0.0 0.00 0.00 0.00 100 1016.4
20260508091607 0 0 0.0 0.0 0.00 0.00 0.00 99 1016.3
20260508091107 0 324 0.0 0.0 0.00 0.00 0.00 100 1016.3
20260508090606 0 0 0.0 0.0 0.00 0.00 0.00 100 1016.2
20260508090106 0 5 0.0 1.6 0.00 0.00 0.00 100 1016.2
20260508085606 0 106 0.0 0.0 0.00 0.00 0.00 100 1016.1
20260508085107 0 119 1.6 1.6 0.00 0.00 0.00 100 1016.1
20260508084606 0 0 0.0 0.0 0.00 0.00 0.00 100 1016.2
20260508084106 0 220 0.0 0.0 0.00 0.00 0.00 100 1016.2
20260508083606 0 0 0.0 0.0 0.00 0.00 0.00 100 1016.1
20260508083107 0 0 0.0 0.0 0.00 0.00 0.00 100 1016.1
20260508082607 1 0 0.0 0.0 0.00 0.00 0.00 100 1016.1
20260508082107 1 54 0.0 0.0 0.00 0.00 0.00 100 1016.2
20260508081611 1 0 0.0 0.0 0.00 0.00 0.00 99 1016.1
20260508081106 1 289 0.0 1.6 0.00 0.00 0.00 99 1016.0
20260508080606 1 316 0.0 0.0 0.00 0.00 0.00 99 1016.0
20260508080107 1 17 0.0 0.0 0.00 0.00 0.00 100 1016.0
20260508075606 1 103 0.0 0.0 0.00 0.00 0.00 100 1016.0
20260508075107 1 0 0.0 0.0 0.00 0.00 0.00 100 1016.0
20260508074606 1 0 0.0 0.0 0.00 0.00 0.00 99 1016.0
20260508074106 1 296 0.0 1.6 0.00 0.00 0.00 99 1016.0
20260508073606 1 192 0.0 0.0 0.00 0.00 0.00 100 1016.1
20260508073107 1 172 0.0 1.6 0.00 0.00 0.00 99 1016.0
20260508072607 1 328 0.0 0.0 0.00 0.00 0.00 99 1016.0
20260508072106 1 31 0.0 0.0 0.00 0.00 0.00 99 1016.0
20260508071607 1 306 0.0 1.6 0.00 0.00 0.00 99 1015.9
20260508071106 1 0 0.0 0.0 0.00 0.00 0.00 99 1015.8
20260508070607 1 117 0.0 0.0 0.00 0.00 0.00 100 1015.8
20260508070106 1 128 0.0 1.6 0.00 0.00 0.00 99 1015.7
20260508065607 1 318 0.0 1.6 0.00 0.00 0.00 99 1015.8
20260508065106 1 48 0.0 1.6 0.00 0.00 0.00 99 1015.8
20260508064606 1 0 0.0 0.0 0.00 0.00 0.00 99 1015.9
20260508064106 2 358 0.0 1.6 0.00 0.00 0.00 99 1015.8
20260508063606 2 8 0.0 0.0 0.00 0.00 0.00 99 1015.8
20260508063106 2 320 0.0 0.0 0.00 0.00 0.00 99 1015.8
20260508062606 2 56 0.0 0.0 0.00 0.00 0.00 99 1015.9
20260508062106 2 0 0.0 0.0 0.00 0.00 0.00 99 1015.9
20260508061606 2 334 0.0 0.0 0.00 0.00 0.00 99 1015.9
20260508061107 2 0 0.0 0.0 0.00 0.00 0.00 98 1016.1
20260508060606 2 0 0.0 0.0 0.00 0.00 0.00 98 1016.1
20260508060106 2 0 0.0 0.0 0.00 0.00 0.00 98 1016.1
20260508055606 2 54 0.0 1.6 0.00 0.00 0.00 98 1016.1
20260508055106 2 277 0.0 0.0 0.00 0.00 0.00 98 1016.2
20260508054606 2 54 0.0 0.0 0.00 0.00 0.00 98 1016.2
20260508054107 2 65 0.0 1.6 0.00 0.00 0.00 99 1016.3
20260508053606 2 289 0.0 0.0 0.00 0.00 0.00 98 1016.2
20260508053106 2 65 0.0 1.6 0.00 0.00 0.00 98 1016.2
20260508052606 2 0 0.0 0.0 0.00 0.00 0.00 98 1016.1
20260508052106 3 43 0.0 1.6 0.00 0.00 0.00 98 1016.0
20260508051606 3 0 0.0 0.0 0.00 0.00 0.00 98 1016.0
20260508051108 3 275 0.0 0.0 0.00 0.00 0.00 98 1015.9
20260508050606 3 336 0.0 0.0 0.00 0.00 0.00 98 1015.9
20260508050106 3 62 0.0 1.6 0.00 0.00 0.00 98 1015.8
20260508045607 3 214 0.0 0.0 0.00 0.00 0.00 98 1015.7
20260508045106 3 75 0.0 1.6 0.00 0.00 0.00 98 1015.6
20260508044607 3 98 3.2 3.2 0.00 0.00 0.00 98 1015.6
20260508044106 4 152 1.6 3.2 0.00 0.00 0.00 97 1015.5
20260508043606 4 110 1.6 3.2 0.00 0.00 0.00 98 1015.4
20260508043106 4 82 1.6 1.6 0.00 0.00 0.00 98 1015.4
20260508042606 4 102 1.6 3.2 0.00 0.00 0.00 98 1015.2
20260508042107 4 115 0.0 1.6 0.00 0.00 0.00 97 1015.4
20260508041606 4 40 0.0 0.0 0.00 0.00 0.00 97 1015.4
20260508041106 4 63 0.0 0.0 0.00 0.00 0.00 97 1015.5
20260508040607 4 21 0.0 0.0 0.00 0.00 0.00 97 1015.5
20260508040106 4 348 0.0 1.6 0.00 0.00 0.00 97 1015.5
20260508035606 4 25 0.0 0.0 0.00 0.00 0.08 97 1015.4
20260508034621 5 0 0.0 0.0 0.00 0.00 0.08 96 1015.4
20260508034107 5 194 0.0 1.6 0.00 0.00 0.08 96 1015.2
20260508033606 5 358 0.0 1.6 0.00 0.00 0.08 96 1015.2
20260508033110 5 246 0.0 0.0 0.00 0.00 0.08 96 1015.2
20260508032607 5 95 0.0 1.6 0.00 0.00 0.08 96 1015.2
20260508032107 5 56 0.0 1.6 0.00 0.00 0.08 96 1015.2
20260508031608 5 50 1.6 3.2 0.00 0.00 0.08 96 1015.1
20260508031107 5 103 3.2 3.2 0.00 0.00 0.08 96 1015.1
20260508030606 5 96 1.6 3.2 0.00 0.00 0.08 95 1015.1
20260508030106 5 93 0.0 1.6 0.00 0.00 0.08 95 1015.1
20260508025606 5 49 0.0 0.0 0.00 0.00 0.08 95 1015.1
20260508025107 6 0 0.0 0.0 0.00 0.00 0.08 94 1015.0
20260508024606 6 104 0.0 0.0 0.00 0.00 0.08 94 1014.9
20260508024107 6 55 0.0 1.6 0.00 0.00 0.08 94 1014.8
20260508023607 6 51 0.0 1.6 0.00 0.00 0.08 94 1014.8
20260508023106 6 254 0.0 1.6 0.00 0.00 0.08 94 1014.7
20260508022607 6 136 0.0 0.0 0.00 0.00 0.08 93 1014.7
20260508022106 6 0 0.0 0.0 0.00 0.00 0.08 93 1014.7
20260508021606 6 66 0.0 1.6 0.00 0.00 0.08 92 1014.6
20260508021107 6 49 0.0 0.0 0.00 0.00 0.08 92 1014.5
20260508020607 7 67 0.0 1.6 0.00 0.00 0.08 91 1014.5
20260508020107 7 90 0.0 1.6 0.00 0.00 0.08 91 1014.4
20260508015607 7 108 0.0 0.0 0.00 0.00 0.08 91 1014.4
20260508015106 7 149 0.0 0.0 0.00 0.00 0.08 90 1014.3
20260508014607 7 0 0.0 0.0 0.00 0.00 0.08 90 1014.3
20260508014106 7 96 0.0 1.6 0.00 0.00 0.08 89 1014.2
20260508013606 8 36 0.0 1.6 0.00 0.00 0.08 88 1014.1
20260508013106 8 0 0.0 0.0 0.00 0.00 0.08 87 1014.0
20260508012606 8 29 0.0 0.0 0.00 0.00 0.08 85 1014.0
20260508012108 8 279 1.6 1.6 0.00 0.00 0.08 84 1013.9
20260508011606 8 270 1.6 3.2 0.00 0.00 0.08 84 1013.9
20260508011106 8 270 0.0 1.6 0.00 0.00 0.08 83 1013.7
20260508010609 8 298 1.6 3.2 0.00 0.00 0.08 84 1013.7
20260508010106 8 301 1.6 3.2 0.00 0.00 0.08 84 1013.7
20260508005606 8 278 1.6 3.2 0.00 0.00 0.08 83 1013.6
20260508005107 9 284 1.6 3.2 0.00 0.00 0.08 83 1013.6
20260508004607 9 295 1.6 3.2 0.00 0.00 0.08 82 1013.5
20260508004108 9 295 3.2 3.2 0.00 0.00 0.08 80 1013.5
20260508003608 10 331 1.6 1.6 0.00 0.00 0.08 80 1013.4
20260508003106 10 288 1.6 1.6 0.00 0.00 0.08 78 1013.4
20260508002607 10 352 0.0 1.6 0.00 0.00 0.08 78 1013.4
20260508002106 10 319 1.6 1.6 0.00 0.00 0.08 78 1013.4
20260508001607 11 331 1.6 3.2 0.00 0.00 0.08 77 1013.4
20260508001106 11 322 1.6 3.2 0.00 0.00 0.08 73 1013.4
20260508000606 11 322 1.6 3.2 0.00 0.00 0.08 72 1013.4
20260508000107 11 287 3.2 4.8 0.00 0.00 0.08 70 1013.3
20260507235606 11 314 4.8 4.8 0.00 0.00 0.08 70 1013.3
20260507235107 11 284 3.2 3.2 0.00 0.00 0.08 69 1013.3
20260507234606 11 327 1.6 3.2 0.00 0.00 0.08 70 1013.4
20260507234107 12 270 3.2 4.8 0.00 0.00 0.08 68 1013.3
20260507233607 12 263 3.2 8.0 0.00 0.00 0.08 68 1013.3
20260507233107 12 304 3.2 4.8 0.00 0.00 0.08 67 1013.2
20260507232611 12 270 1.6 3.2 0.00 0.00 0.08 66 1013.2
20260507232107 12 307 8.0 12.9 0.00 0.00 0.08 64 1013.1
20260507231606 12 289 6.4 9.7 0.00 0.00 0.08 64 1013.1
20260507231107 12 301 6.4 9.7 0.00 0.00 0.08 65 1013.2
20260507230607 12 318 3.2 6.4 0.00 0.00 0.08 65 1013.1
20260507230106 12 278 4.8 9.7 0.00 0.00 0.08 65 1013.0
20260507225606 12 283 3.2 6.4 0.00 0.00 0.08 65 1013.0
20260507225106 12 279 3.2 9.7 0.00 0.00 0.08 65 1013.0
20260507224607 12 310 9.7 12.9 0.00 0.00 0.08 65 1013.0
20260507224106 12 318 8.0 9.7 0.00 0.00 0.08 66 1013.0
20260507223606 12 295 4.8 8.0 0.00 0.00 0.08 66 1013.0
20260507223107 12 244 3.2 4.8 0.00 0.00 0.08 67 1012.9
20260507222454 12 305 4.8 9.7 0.00 0.00 0.08 66 1012.8
20260507221606 12 311 1.6 4.8 0.00 0.00 0.08 69 1012.8
20260507221108 12 50 3.2 4.8 0.00 0.00 0.08 69 1012.8
20260507220607 12 314 8.0 12.9 0.00 0.00 0.08 69 1012.8
20260507220106 12 316 4.8 8.0 0.00 0.00 0.08 68 1012.7
20260507215607 12 340 3.2 6.4 0.00 0.00 0.08 69 1012.7
20260507215106 11 1 3.2 6.4 0.00 0.00 0.08 69 1012.7
20260507214606 11 315 6.4 9.7 0.00 0.00 0.08 69 1012.6
20260507214110 11 286 4.8 6.4 0.00 0.00 0.08 69 1012.7
20260507213606 11 271 6.4 9.7 0.00 0.00 0.08 69 1012.6
20260507213106 11 290 9.7 11.3 0.00 0.00 0.08 68 1012.6
20260507212607 11 271 9.7 12.9 0.00 0.00 0.08 68 1012.6
20260507212106 11 270 6.4 9.7 0.00 0.00 0.08 69 1012.6
20260507211607 12 272 6.4 9.7 0.00 0.00 0.08 69 1012.6
20260507211106 12 239 4.8 8.0 0.00 0.00 0.08 69 1012.6
20260507210606 12 247 6.4 11.3 0.00 0.00 0.08 70 1012.3
20260507210107 11 277 8.0 11.3 0.00 0.00 0.08 68 1012.2
20260507205606 11 348 4.8 8.0 0.00 0.00 0.08 69 1012.3
20260507205107 11 324 6.4 12.9 0.00 0.00 0.08 71 1012.3
20260507204606 11 351 6.4 8.0 0.00 0.00 0.08 71 1012.3
20260507204106 11 326 6.4 14.5 0.00 0.00 0.08 71 1012.3
20260507203607 11 266 6.4 9.7 0.00 0.00 0.08 71 1012.2
20260507203106 11 239 6.4 8.0 0.00 0.00 0.08 72 1012.3
20260507202607 11 279 3.2 4.8 0.00 0.00 0.08 74 1012.5
20260507202106 11 286 6.4 8.0 0.00 0.00 0.08 74 1012.6
20260507201607 11 298 3.2 4.8 0.00 0.00 0.08 74 1012.7
20260507201106 11 347 4.8 6.4 0.00 0.00 0.08 73 1012.7
20260507200606 11 329 6.4 9.7 0.00 0.00 0.08 74 1012.8
20260507200109 11 276 9.7 12.9 0.00 0.00 0.08 74 1012.8
20260507195606 11 295 4.8 6.4 0.00 0.00 0.08 73 1012.8
20260507195106 11 314 8.0 16.1 0.00 0.00 0.08 73 1012.7
20260507194607 11 296 6.4 8.0 0.00 0.00 0.08 74 1012.6
20260507194107 11 282 8.0 11.3 0.00 0.00 0.08 75 1012.6
20260507193607 11 307 6.4 11.3 0.00 0.00 0.08 75 1012.5
20260507193107 11 288 4.8 6.4 0.00 0.00 0.08 75 1012.6
20260507192608 11 294 4.8 6.4 0.00 0.00 0.08 75 1012.7
20260507192106 11 308 6.4 11.3 0.00 0.00 0.08 75 1012.8
20260507191607 10 293 6.4 8.0 0.00 0.00 0.08 76 1012.9
20260507191107 10 263 6.4 6.4 0.00 0.00 0.08 77 1012.9
20260507190606 10 279 4.8 6.4 0.00 0.00 0.08 76 1013.0
20260507190106 10 280 6.4 9.7 0.00 0.00 0.08 77 1013.1
20260507185607 10 272 3.2 6.4 0.00 0.00 0.08 78 1013.1
20260507185106 10 289 4.8 9.7 0.00 0.00 0.08 78 1013.3
20260507184607 10 311 6.4 11.3 0.00 0.00 0.08 77 1013.3
20260507184106 10 306 3.2 6.4 0.00 0.00 0.08 78 1013.3
20260507183606 10 300 4.8 6.4 0.00 0.00 0.08 77 1013.3
20260507183107 10 325 8.0 11.3 0.00 0.00 0.08 78 1013.3
20260507182607 10 275 8.0 12.9 0.00 0.00 0.08 77 1013.1
20260507182107 10 304 8.0 9.7 0.00 0.00 0.08 78 1013.1
20260507181606 10 302 4.8 6.4 0.00 0.00 0.08 78 1013.0
20260507181107 10 309 4.8 6.4 0.00 0.00 0.08 79 1013.2
20260507180137 10 292 6.4 9.7 0.00 0.00 0.08 77 1013.2
20260507175607 10 319 6.4 11.3 0.00 0.00 0.08 77 1013.2
20260507175106 10 273 6.4 9.7 0.00 0.00 0.08 76 1013.2
20260507174606 10 279 6.4 9.7 0.00 0.00 0.08 77 1013.3
20260507174107 10 291 4.8 6.4 0.00 0.00 0.08 75 1013.1
20260507173607 10 301 6.4 8.0 0.00 0.00 0.08 78 1013.2
20260507173107 10 303 6.4 8.0 0.00 0.00 0.08 80 1013.2
20260507172607 10 297 3.2 4.8 0.00 0.00 0.08 79 1013.2
20260507172107 10 334 4.8 6.4 0.00 0.00 0.08 80 1013.2
20260507171606 10 336 6.4 6.4 0.00 0.00 0.08 80 1013.2
20260507171112 10 306 3.2 3.2 0.00 0.00 0.08 80 1013.2
20260507170607 10 341 3.2 3.2 0.00 0.00 0.08 81 1013.2
20260507170107 10 338 1.6 3.2 0.00 0.00 0.08 81 1013.2
20260507165607 10 278 6.4 9.7 0.00 0.00 0.08 82 1013.1
20260507165106 10 324 4.8 6.4 0.00 0.00 0.08 83 1013.1
20260507164607 10 234 3.2 4.8 0.00 0.00 0.08 84 1013.3
20260507164106 9 279 1.6 3.2 0.00 0.00 0.08 85 1013.2
20260507163609 9 258 1.6 3.2 0.00 0.00 0.08 85 1013.3
20260507163106 9 276 3.2 4.8 0.00 0.00 0.08 85 1013.3
20260507162607 9 230 3.2 3.2 0.00 0.00 0.08 86 1013.3
20260507162107 9 269 4.8 6.4 0.00 0.00 0.08 85 1013.4
20260507161606 8 296 3.2 4.8 0.00 0.00 0.08 84 1013.3
20260507161107 8 284 3.2 3.2 0.00 0.00 0.08 86 1013.3
20260507160607 8 303 3.2 4.8 0.00 0.00 0.08 86 1013.3
20260507160107 9 294 6.4 6.4 0.00 0.00 0.08 86 1013.4
20260507155606 9 238 1.6 3.2 0.00 0.00 0.08 86 1013.3
20260507155108 8 295 1.6 1.6 0.00 0.00 0.08 86 1013.3
20260507154607 8 28 1.6 3.2 0.00 0.00 0.08 86 1013.3
20260507154107 8 302 3.2 3.2 0.00 0.00 0.08 86 1013.3
20260507153606 8 264 3.2 4.8 0.00 0.00 0.08 87 1013.3
20260507153106 8 306 1.6 4.8 0.00 0.00 0.08 88 1013.3
20260507152606 8 270 1.6 3.2 0.00 0.00 0.08 89 1013.3
20260507152107 8 296 0.0 1.6 0.00 0.00 0.08 89 1013.3
20260507151607 8 322 3.2 4.8 0.00 0.00 0.08 89 1013.3
20260507151107 8 240 4.8 4.8 0.00 0.00 0.08 89 1013.5
20260507150607 8 270 3.2 3.2 0.00 0.00 0.08 89 1013.5
20260507150108 7 202 0.0 0.0 0.00 0.00 0.08 90 1013.4
20260507145606 7 273 4.8 4.8 0.00 0.00 0.08 92 1013.6
20260507145108 7 265 3.2 3.2 0.00 0.00 0.08 92 1013.5
20260507144607 7 263 3.2 3.2 0.00 0.00 0.08 93 1013.4
20260507144107 7 284 0.0 0.0 0.00 0.00 0.08 93 1013.4
20260507143606 7 241 3.2 3.2 0.00 0.00 0.08 93 1013.6
20260507143109 7 216 3.2 3.2 0.00 0.00 0.08 94 1013.4
20260507142607 7 175 3.2 3.2 0.00 0.00 0.08 95 1013.5
20260507142107 7 197 1.6 3.2 0.00 0.00 0.08 95 1013.5
20260507141606 7 233 3.2 3.2 0.00 0.00 0.08 95 1013.6